Flag for Slovakia Weather past 2 weeks in Prešov, Slovakia

Now
55 °F

Clear.


Feels Like: 55 °F
Forecast: 50 / 74 °F
Wind: 5 mph from Northeast

Location: Kosice - Barca


UV Index: 0 (Low)

Visibility: 10 mi


Pressure: 30.01 "Hg

Humidity: 77%

Dew point: 48 °F

Location of PrešovLocation

Historic Weather in Prešov

°F

Prešov temperature yesterday

Maximum temperature yesterday: 70 °F (at 4:00 PM)
Minimum temperature yesterday: 54 °F (at 2:30 AM)
Average temperature yesterday: 60 °F

Past Weeks' High & Low Weather Summary

 TemperatureHumidityPressure
High72 °F (Apr 22, 12:30 PM)100% (Apr 10, 2:00 AM)30.18 "Hg (Apr 10, 2:00 AM)
Low30 °F (Apr 10, 6:00 AM)35% (Apr 9, 5:30 PM)29.68 "Hg (Apr 14, 3:30 PM)
Average51 °F71%29.94 "Hg
* Reported Apr 9 1:00 AM — Apr 24 1:00 AM, Prešov, Weather by CustomWeather, © 2014

Note: Actual official high and low records may vary slightly from our data, if they occured in-between our weather recording intervals... More about our weather records

Advertising

Historic Weather Conditions — Data for Previous 24 hours

 ConditionsComfort  
Time TempWeatherWind HumidityBarometerVisibility
1:00 AM
Apr 24
57 °FClear.6 mph72%30.01 "Hg10 mi
12:30 AM55 °FClear.5 mph77%30.01 "Hg10 mi
12:00 AM55 °FClear.1 mph77%30.04 "Hg10 mi
11:30 PM
Apr 23
55 °FClear.No wind77%30.04 "Hg10 mi
11:00 PM59 °FPassing clouds.6 mph72%30.04 "HgN/A
10:30 PM59 °FClear.8 mph72%30.04 "Hg10 mi
10:00 PM57 °FClear.10 mph77%30.04 "Hg10 mi
9:30 PM57 °FClear.5 mph72%30.04 "Hg10 mi
9:00 PM59 °FClear.7 mph72%30.04 "Hg10 mi
8:30 PM61 °FSunny.8 mph68%30.04 "Hg10 mi
8:00 PM61 °FSunny.6 mph72%30.04 "Hg10 mi
7:30 PM63 °FScattered clouds.3 mph68%30.04 "HgN/A
7:00 PM63 °FScattered clouds.8 mph64%30.04 "HgN/A
6:30 PM63 °FScattered clouds.7 mph64%30.01 "HgN/A
6:00 PM66 °FScattered clouds.3 mph56%30.01 "HgN/A
5:30 PM68 °FScattered clouds.7 mph56%30.01 "HgN/A
5:00 PM70 °FScattered clouds.8 mph60%30.01 "HgN/A
4:30 PM70 °FScattered clouds.2 mph53%30.01 "HgN/A
4:00 PM70 °FScattered clouds.5 mph53%30.01 "HgN/A
3:30 PM68 °FPassing clouds.5 mph56%30.01 "HgN/A
3:00 PM68 °FPassing clouds.6 mph56%30.04 "HgN/A
2:30 PM68 °FScattered clouds.5 mph56%30.04 "HgN/A
2:00 PM68 °FPassing clouds.8 mph53%30.04 "HgN/A
1:30 PM66 °FPassing clouds.8 mph60%30.07 "HgN/A
1:00 PM64 °FPassing clouds.9 mph64%30.07 "HgN/A
12:30 PM66 °FPassing clouds.9 mph64%30.07 "HgN/A
12:00 PM63 °FPartly sunny.9 mph68%30.07 "HgN/A
11:30 AM61 °FScattered clouds.10 mph72%30.07 "HgN/A
11:00 AM61 °FSunny.12 mph72%30.07 "Hg10 mi
10:30 AM61 °FPartly sunny.10 mph72%30.07 "HgN/A
10:00 AM57 °FPartly sunny.7 mph82%30.07 "HgN/A
9:30 AM57 °FPartly sunny.7 mph82%30.07 "HgN/A
9:00 AM57 °FSunny.8 mph82%30.07 "Hg10 mi
8:30 AM57 °FSunny.8 mph82%30.07 "Hg10 mi
8:00 AM55 °FSunny.7 mph94%30.07 "Hg10 mi
7:30 AM55 °FSunny.7 mph88%30.07 "Hg10 mi
7:00 AM54 °FScattered clouds.3 mph94%30.04 "HgN/A
6:30 AM54 °FPartly sunny.3 mph94%30.04 "HgN/A
6:00 AM54 °FClear.5 mph94%30.04 "Hg10 mi
5:30 AM54 °FClear.6 mph94%30.04 "Hg10 mi
5:00 AM54 °FClear.6 mph94%30.04 "Hg10 mi
4:30 AM54 °FClear.3 mph94%30.04 "Hg10 mi
4:00 AM54 °FClear.2 mph94%30.01 "Hg10 mi
3:30 AM54 °FClear.2 mph94%30.01 "Hg10 mi
3:00 AM54 °FLight rain. Clear.3 mph94%30.01 "HgN/A
2:30 AM54 °FLight rain. Clear.5 mph94%30.01 "HgN/A
2:00 AM55 °FClear.1 mph88%30.01 "Hg10 mi
Weather by CustomWeather, © 2014

See weather overview